Location: Ferchesar
(52.6477°N, 12.4298°E)
Time: 13:01:40
(UTC+02:00)

Transit 4A - Pass Details

Date: 02 March 2021
Orbit: 869 x 975 km, 66.8° (Epoch: 16 April)

Event Time Altitude Azimuth Distance (km) Brightness Sun altitude
Rises 10:15:34 0° 187° (S) 3,658 11.7 24.5°
Reaches altitude 10° 10:18:19 10° 179° (S) 2,710 11.4 24.7°
Maximum altitude 10:24:03 38° 115° (ESE) 1,444 10.2 25.2°
Drops below altitude 10° 10:29:44 10° 50° (NE) 2,680 10.3 25.7°
Sets 10:32:25 0° 42° (NE) 3,613 10.8 25.9°
